This is the latest recevied weather packets stored in our database for station/object WP3OF-1. If no packets are shown the sender has not sent any weather packets the latest 10 day(s).
| Time | Temp. | Humidity | Pressure | Rain* | Wind** | Luminosity | Snow |
|---|---|---|---|---|---|---|---|
| 1778001525 | 29.44° C | 73% | 1018.2 hPa | 0 mm | - | - | - |
| 1778001222 | 29.44° C | 72% | 1018.3 hPa | 0 mm | - | - | - |
| 1778000919 | 29.44° C | 71% | 1018.3 hPa | 0 mm | - | - | - |
| 1778000615 | 29.44° C | 70% | 1018.3 hPa | 0 mm | - | - | - |
| 1778000311 | 29.44° C | 70% | 1018.3 hPa | 0 mm | - | - | - |
| 1778000007 | 29.44° C | 70% | 1018.4 hPa | 0 mm | - | - | - |
| 1777999702 | 28.89° C | 73% | 1018.3 hPa | 0 mm | - | - | - |
| 1777999399 | 29.44° C | 74% | 1018.5 hPa | 0 mm | - | - | - |
| 1777999097 | 29.44° C | 73% | 1018.6 hPa | 0 mm | - | - | - |
| 1777998796 | 28.89° C | 72% | 1018.4 hPa | 0 mm | - | - | - |
| 1777998494 | 28.89° C | 72% | 1018.5 hPa | 0 mm | - | - | - |
| 1777998190 | 28.89° C | 73% | 1018.5 hPa | 0 mm | - | - | - |
| 1777997887 | 28.89° C | 71% | 1018.4 hPa | 0 mm | - | - | - |
| 1777997584 | 28.89° C | 72% | 1018.5 hPa | 0 mm | - | - | - |
| 1777997281 | 29.44° C | 72% | 1018.5 hPa | 0 mm | - | - | - |
| 1777996979 | 29.44° C | 70% | 1018.7 hPa | 0 mm | - | - | - |
| 1777996675 | 29.44° C | 71% | 1018.5 hPa | 0 mm | - | - | - |
| 1777996371 | 28.89° C | 74% | 1018.6 hPa | 0 mm | - | - | - |
| 1777996068 | 28.89° C | 73% | 1018.5 hPa | 0 mm | - | - | - |
| 1777995765 | 29.44° C | 72% | 1018.6 hPa | 0 mm | - | - | - |
| 1777995461 | 28.89° C | 73% | 1018.7 hPa | 0 mm | - | - | - |
| 1777995158 | 28.89° C | 74% | 1018.6 hPa | 0 mm | - | - | - |
| 1777994855 | 28.33° C | 76% | 1018.6 hPa | 0 mm | - | - | - |
| 1777994552 | 28.33° C | 76% | 1018.4 hPa | 0 mm | - | - | - |
| 1777994247 | 28.33° C | 76% | 1018.5 hPa | 0 mm | - | - | - |
* Rain latest hour (hover to see other rain measurements)
** Current wind speed in m/s (hover to see current wind gust speed)